Date String (YYYY-MM-DD hh:mm:ss) UTC,Instrument flags,Ambient pressure (hPa),Sample flow (lpm),Bypass flow (lpm),Sample temperature (°C),Ambient temperature (°C),ASC tube jacket temperature (°C),LED temperature (°C),Box temperature (°C),Sample RH (%),Span deviation,Mass concentration (μg/m³),Mass concentration (μg/m³),Mass concentration (μg/m³)
DateTimeUTC,F1_M11,P_M11,Q1_M11,Q2_M11,T1_M11,T2_M11,T3_M11,T4_M11,T5_M11,U1_M11,ZSPAN_M11,X0_M11,X2_M11,X1_M11
2021-09-15 11:00:00,,0826.7,5.00,0.00,29.3,28.6,00.0,38.4,31.1,21.8,0001.9,0012.97,0008.36,0007.71
2021-09-15 11:01:00,,0826.7,5.02,0.00,29.3,28.6,00.0,38.4,31.1,19.9,0001.8,0012.98,0008.36,0007.70
2021-09-15 11:02:00,,0826.7,4.99,0.00,29.3,28.6,00.0,38.4,31.1,19.6,0001.9,0012.91,0008.35,0007.72
2021-09-15 11:03:00,,0826.7,5.00,0.00,29.3,28.6,00.0,38.4,31.1,19.8,0002.0,0012.84,0008.36,0007.73
2021-09-15 11:04:00,,0826.7,5.01,0.00,29.3,28.6,00.0,38.4,31.1,21.0,0001.7,0012.91,0008.39,0007.73
2021-09-15 11:05:00,,0826.7,5.00,0.00,29.3,28.6,00.0,38.4,31.1,21.1,0001.8,0012.87,0008.39,0007.70
2021-09-15 11:06:00,,0826.7,5.00,0.00,29.3,28.6,00.0,38.4,31.1,22.0,0002.0,0013.52,0008.41,0007.69
2021-09-15 11:07:00,,0826.7,4.99,0.00,29.4,28.6,00.0,38.4,31.1,22.3,0001.9,0013.67,0008.43,0007.67
2021-09-15 11:08:00,,0826.7,5.02,0.00,29.4,28.6,00.0,38.4,31.2,23.1,0001.9,0014.21,0008.46,0007.66
2021-09-15 11:09:00,,0826.7,4.99,0.00,29.4,28.6,00.0,38.4,31.1,24.0,0002.2,0014.81,0008.50,0007.66
2021-09-15 11:10:00,,0826.7,5.01,0.00,29.4,28.6,00.0,38.4,31.1,24.0,0001.9,0014.73,0008.54,0007.67
2021-09-15 11:11:00,,0826.7,5.00,0.00,29.3,28.6,00.0,38.5,31.1,23.4,0001.8,0014.24,0008.52,0007.68
2021-09-15 11:12:00,,0826.7,5.00,0.00,29.3,28.6,00.0,38.5,31.1,23.2,0001.8,0014.34,0008.52,0007.65
2021-09-15 11:13:00,,0826.7,5.01,0.00,29.3,28.6,00.0,38.5,31.1,23.8,0001.6,0014.95,0008.52,0007.63
2021-09-15 11:14:00,,0826.7,4.99,0.00,29.3,28.6,00.0,38.5,31.1,24.2,0001.8,0015.53,0008.54,0007.62
2021-09-15 11:15:00,,0826.7,4.99,0.00,29.4,28.6,00.0,38.5,31.1,24.5,0002.1,0015.49,0008.51,0007.61
2021-09-15 11:16:00,,0826.7,5.00,0.00,29.4,28.6,00.0,38.5,31.1,24.5,0002.0,0015.72,0008.60,0007.63
2021-09-15 11:17:00,,0826.7,5.01,0.00,29.4,28.6,00.0,38.5,31.1,24.5,0002.0,0015.27,0008.66,0007.63
2021-09-15 11:18:00,,0826.7,5.00,0.00,29.4,28.6,00.0,38.5,31.1,24.5,0002.1,0015.25,0008.67,0007.64
2021-09-15 11:19:00,,0826.7,4.99,0.00,29.4,28.6,00.0,38.5,31.1,24.2,0001.9,0014.83,0008.64,0007.64
2021-09-15 11:20:00,,0826.7,5.00,0.00,29.3,28.6,00.0,38.5,31.1,24.6,0001.7,0014.29,0008.61,0007.67
2021-09-15 11:21:00,,0826.7,5.02,0.00,29.3,28.6,00.0,38.5,31.1,24.7,0001.8,0014.32,0008.60,0007.69
2021-09-15 11:22:00,,0826.7,5.00,0.00,29.3,28.6,00.0,38.5,31.1,25.1,0002.0,0014.42,0008.65,0007.72
2021-09-15 11:23:00,,0826.7,4.99,0.00,29.3,28.6,00.0,38.5,31.0,25.7,0002.2,0014.65,0008.73,0007.79
2021-09-15 11:24:00,,0826.7,5.00,0.00,29.3,28.6,00.0,38.5,31.0,25.8,0002.3,0014.37,0008.79,0007.84
2021-09-15 11:25:00,,0827.0,5.01,0.00,29.3,28.6,00.0,38.4,31.0,26.0,0002.1,0013.90,0008.85,0007.88
2021-09-15 11:26:00,,0826.7,5.00,0.00,29.3,28.5,00.0,38.4,31.0,26.1,0002.2,0014.04,0008.91,0007.92
2021-09-15 11:27:00,,0826.8,5.01,0.00,29.2,28.5,00.0,38.4,31.0,25.8,0002.1,0014.16,0008.91,0007.95
2021-09-15 11:28:00,,0826.8,5.00,0.00,29.2,28.5,00.0,38.4,31.0,25.7,0001.6,0014.35,0008.91,0008.00
2021-09-15 11:29:00,,0826.8,4.98,0.00,29.2,28.5,00.0,38.4,31.0,25.5,0001.4,0014.32,0008.92,0008.03
2021-09-15 11:30:00,,0826.7,5.00,0.00,29.2,28.5,00.0,38.4,31.0,25.7,0001.4,0014.37,0008.99,0008.07
2021-09-15 11:31:00,,0826.7,4.99,0.00,29.3,28.5,00.0,38.4,31.0,25.7,0001.1,0014.27,0009.04,0008.09
2021-09-15 11:32:00,,0826.7,5.00,0.00,29.2,28.5,00.0,38.4,31.0,26.0,0000.9,0014.06,0009.06,0008.11
2021-09-15 11:33:00,,0826.7,5.00,0.00,29.2,28.5,00.0,38.4,31.0,26.1,0000.8,0014.24,0009.08,0008.11
2021-09-15 11:34:00,,0826.7,5.01,0.00,29.2,28.5,00.0,38.4,31.0,26.1,0000.5,0014.14,0009.07,0008.11
2021-09-15 11:35:00,,0826.7,4.99,0.00,29.2,28.5,00.0,38.4,30.9,26.3,0000.4,0014.23,0009.09,0008.10
2021-09-15 11:36:00,,0826.8,5.00,0.00,29.2,28.5,00.0,38.4,30.9,26.3,0000.6,0014.12,0009.06,0008.10
2021-09-15 11:37:00,,0826.7,5.01,0.00,29.2,28.5,00.0,38.4,30.9,26.3,0000.6,0014.24,0009.08,0008.12
2021-09-15 11:38:00,,0826.7,5.00,0.00,29.2,28.5,00.0,38.4,31.0,26.2,0000.6,0013.97,0009.05,0008.11
2021-09-15 11:39:00,,0826.7,4.99,0.00,29.2,28.5,00.0,38.4,31.0,26.1,0000.9,0013.84,0009.05,0008.11
2021-09-15 11:40:00,,0826.7,5.00,0.00,29.2,28.5,00.0,38.4,31.0,25.9,0001.1,0014.05,0009.07,0008.12
2021-09-15 11:41:00,,0826.7,5.00,0.00,29.2,28.5,00.0,38.4,31.0,25.9,0001.3,0014.06,0009.06,0008.12
2021-09-15 11:42:00,,0826.7,5.00,0.00,29.2,28.5,00.0,38.4,31.0,25.8,0001.6,0014.17,0009.07,0008.13
2021-09-15 11:43:00,,0826.7,5.00,0.00,29.2,28.5,00.0,38.4,30.9,25.6,0001.7,0014.49,0009.12,0008.14
2021-09-15 11:44:00,,0826.7,4.99,0.00,29.1,28.4,00.0,38.4,30.8,25.0,0001.8,0014.48,0009.11,0008.14
2021-09-15 11:45:00,,0826.7,5.01,0.00,29.1,28.4,00.0,38.3,30.8,24.2,0001.9,0014.51,0009.09,0008.14
2021-09-15 11:46:00,,0826.6,5.01,0.00,29.1,28.4,00.0,38.3,30.8,23.3,0002.1,0014.31,0009.04,0008.14
2021-09-15 11:47:00,,0826.7,4.99,0.00,29.1,28.4,00.0,38.3,30.8,23.2,0002.4,0014.39,0009.05,0008.15
2021-09-15 11:48:00,,0826.7,5.00,0.00,29.1,28.4,00.0,38.3,30.8,23.4,0002.3,0014.88,0009.01,0008.14
2021-09-15 11:49:00,,0826.7,4.99,0.00,29.1,28.4,00.0,38.3,30.9,23.5,0002.5,0015.01,0009.01,0008.14
2021-09-15 11:50:00,,0826.7,4.99,0.00,29.1,28.4,00.0,38.3,30.9,24.2,0002.4,0015.34,0008.95,0008.12
2021-09-15 11:51:00,,0826.6,5.00,0.00,29.1,28.4,00.0,38.3,30.9,25.4,0002.2,0015.52,0008.97,0008.09
2021-09-15 11:52:00,,0826.6,4.99,0.00,29.1,28.4,00.0,38.3,30.9,25.9,0001.9,0015.63,0008.98,0008.07
2021-09-15 11:53:00,,0826.6,5.01,0.00,29.1,28.4,00.0,38.3,30.9,26.0,0001.7,0015.86,0008.98,0008.04
2021-09-15 11:54:00,,0826.6,5.00,0.00,29.1,28.4,00.0,38.3,30.9,25.3,0001.8,0015.90,0008.95,0008.01
2021-09-15 11:55:00,,0826.7,5.02,0.00,29.1,28.4,00.0,38.3,30.9,24.8,0001.9,0015.98,0008.94,0008.00
2021-09-15 11:56:00,,0826.7,5.00,0.00,29.1,28.4,00.0,38.3,30.9,24.7,0001.6,0016.39,0008.94,0007.97
2021-09-15 11:57:00,,0826.7,5.00,0.00,29.1,28.4,00.0,38.3,30.9,25.0,0001.3,0016.42,0008.92,0007.94
2021-09-15 11:58:00,,0826.7,5.00,0.00,29.1,28.5,00.0,38.3,30.9,25.5,0001.1,0016.37,0008.90,0007.92
2021-09-15 11:59:00,,0826.7,5.01,0.00,29.1,28.5,00.0,38.3,30.9,26.0,0001.4,0015.64,0008.87,0007.89
